Location: Newark
(33.6439°N, 114.9881°W)
Time: 23:37:46
(UTC+00:00)

Transit 2A Rocket - Pass Details

Date: 23 August 2019
Orbit: 592 x 911 km, 66.7° (Epoch: 19 September)

Event Time Altitude Azimuth Distance (km) Brightness Sun altitude
Rises 03:55:00 0° 254° (WSW) 3,451 9.1 -19.5°
Reaches altitude 10° 03:58:52 10° 279° (W) 2,460 8.6 -20.2°
Maximum altitude 04:01:44 14° 309° (NW) 2,142 8.4 -20.7°
Drops below altitude 10° 04:04:31 10° 340° (NNW) 2,361 8.2 -21.2°
Sets 04:08:07 0° 6° (N) 3,216 8.6 -21.9°
